Погода в Сагенее

Канада     48°15′56″N   71°10′36″W
темп.,
°C
ветер,
м/с
пор.,
м/с
влажн.,
%
обл.,
%
осадки,
мм/ч
давл.,
гПа
погр.,
м
9 мая, вс
вс923:00+4ю1177100 0.0 101310
02:00+3з1180100 0.0 101217
05:00+2зюз2385100 0.0 101266
08:00+6зсз3668100 0.0 1012530
11:00+10сз464982 0.0 10111589
14:00+13сз453771 0.0 10092222
17:00+13зсз443635 0.0 10082134
20:00+8юз225528 0.0 100919
10 мая, пн
пн1023:00+5зюз22855 0.1 101055
02:00+3юз239635 0.1 101055
05:00+2юз11965 0.0 101012
08:00+7с117435 0.0 1011474
11:00+11ссв325537 0.1 10101302
14:00+14ссв1239100 0.7 10082201
17:00+13зюз3342100 0.1 10081697
20:00+8всв237694 0.5 101072
11 мая, вт
вт1123:00+5ююв2293100 0.8 101127
02:00+5ююв2290100 0.8 101034
05:00+4ююв119296 0.0 101015
08:00+7всв247598 0.0 1010350
11:00+11в454585 0.0 10101337
14:00+11св4555100 0.2 10091194
17:00+12св344960 0.5 10091465
20:00+8ссв386694 1.1 1011226
12 мая, ср
ср1223:00+5з117694 0.1 101216
02:00+5з227394 0.1 101344
05:00+2зюз23856 0.0 101560
08:00+7зсз366455 0.0 1016522
11:00+11зсз564592 0.0 10161954
14:00+10сз5855100 0.9 10161646
17:00+11сз494690 0.7 10152008
20:00+9сз411515 0.8 1017453
13 мая, чт
чт1323:00+5зюз34675 0.0 101956
02:00+5з3966100 0.0 1019313
05:00+5зюз41080100 0.3 1019479
08:00+7з51185100 0.6 1020747
11:00+11зсз5126933 0.3 10191267
14:00+15зсз7115464 1.2 10161985
17:00+16сз5125371 0.8 10152185
20:00+9юз259146 2.1 1017107